FW8089 Weather Reports


Display with metric or nautical units.
time (UTC)temp
F
wind
direction
speed
MPH
gust
MPH
rain 1hr
in
rain 24hr
in
rain mn
in
humidity
%
barometer
mb
20260509043238 60 324 9.0 21.0 0.00 0.74 0.13 72 999.8
20260509042739 61 286 10.0 21.0 0.00 0.74 0.13 72 999.8
20260509041554 61 279 9.0 20.0 0.00 0.74 0.13 71 1000.0
20260509041046 61 300 7.0 17.0 0.00 0.74 0.13 73 1000.1
20260509035937 62 239 7.0 24.0 0.00 0.74 0.13 73 999.9
20260509035422 62 267 9.0 24.0 0.00 0.74 0.13 72 1000.0
20260509034230 63 251 6.0 19.0 0.00 0.74 0.13 71 1000.0
20260509033725 63 255 5.0 14.0 0.00 0.74 0.13 71 1000.1
20260509033211 63 311 6.0 14.0 0.00 0.74 0.13 72 1000.0
20260509032653 63 302 6.0 16.0 0.00 0.74 0.13 73 1000.0
20260509032139 63 265 7.0 16.0 0.00 0.74 0.13 73 1000.0
20260509031034 62 297 8.0 19.0 0.00 0.74 0.13 74 999.9
20260509025232 63 272 6.0 18.0 0.00 0.74 0.13 75 999.5
20260509024731 63 299 6.0 18.0 0.00 0.74 0.13 75 999.4
20260509024219 63 253 5.0 18.0 0.00 0.74 0.13 75 999.4
20260509023711 63 287 5.0 15.0 0.00 0.74 0.13 75 999.3
20260509023153 63 325 6.0 14.0 0.00 0.74 0.13 75 999.3
20260509022641 63 325 5.0 18.0 0.00 0.74 0.13 75 999.3
20260509022136 63 320 6.0 18.0 0.00 0.74 0.13 76 999.2
20260509020401 64 282 5.0 14.0 0.00 0.74 0.13 76 998.9
20260509015910 64 325 6.0 15.0 0.00 0.74 0.13 77 998.9
20260509015407 63 296 6.0 15.0 0.00 0.74 0.13 76 999.0
20260509014900 63 353 5.0 15.0 0.00 0.74 0.13 77 999.0
20260509014408 64 272 6.0 15.0 0.00 0.74 0.13 76 999.1
20260509013849 63 277 5.0 14.0 0.00 0.74 0.13 78 999.2
20260509013352 63 47 4.0 17.0 0.00 0.74 0.13 78 999.2
20260509012855 62 283 5.0 17.0 0.00 0.74 0.13 78 999.2
20260509011106 62 312 6.0 18.0 0.00 0.74 0.13 78 999.6
20260509010545 62 313 7.0 18.0 0.00 0.74 0.13 78 999.6
20260509010028 62 246 7.0 18.0 0.00 0.74 0.13 78 999.7
20260509005510 62 253 7.0 18.0 0.00 0.74 0.13 79 999.7
20260509004957 61 293 6.0 16.0 0.00 0.74 0.13 79 999.8
20260509003840 61 314 7.0 19.0 0.00 0.74 0.13 80 999.9
20260509003349 61 0 7.0 19.0 0.00 0.74 0.13 80 999.9
20260509002226 60 287 7.0 19.0 0.00 0.74 0.13 80 999.9
20260509001723 60 329 7.0 19.0 0.00 0.74 0.13 80 999.8
20260509001214 61 274 7.0 19.0 0.00 0.74 0.13 80 999.9
20260509000106 61 309 6.0 19.0 0.00 0.74 0.13 81 1000.1
20260508235604 60 23 6.0 18.0 0.00 0.74 0.13 82 1000.1
20260508234409 60 315 7.0 18.0 0.00 0.74 0.13 82 1000.2
20260508233857 60 265 7.0 18.0 0.00 0.74 0.13 83 1000.1
20260508233337 60 272 7.0 18.0 0.00 0.74 0.13 83 1000.1
20260508231545 60 308 8.0 20.0 0.00 0.74 0.13 83 1000.0
20260508231048 60 297 7.0 25.0 0.00 0.74 0.13 83 1000.1
20260508230540 59 279 6.0 25.0 0.00 0.74 0.13 84 1000.0
20260508230047 59 282 7.0 25.0 0.03 0.74 0.13 84 1000.3
20260508225542 59 4 8.0 25.0 0.05 0.74 0.13 84 1000.3
20260508225051 59 313 9.0 25.0 0.13 0.74 0.13 84 1000.4
20260508224556 59 311 7.0 25.0 0.35 0.74 0.12 83 1000.4
20260508224036 59 309 6.0 20.0 0.06 0.71 0.10 83 1000.1
20260508223532 60 14 7.0 20.0 0.18 0.71 0.10 82 1000.3
20260508223030 60 343 5.0 20.0 0.52 0.66 0.06 80 1000.5
20260508222511 61 299 6.0 20.0 0.00 0.66 0.04 80 1000.5
20260508222008 61 355 7.0 20.0 0.00 0.66 0.04 79 1000.5
20260508221513 61 315 6.0 17.0 0.00 0.66 0.04 78 1000.7
20260508221017 61 341 5.0 17.0 0.00 0.65 0.03 79 1000.7
20260508220520 61 305 6.0 17.0 0.00 0.65 0.03 78 1000.7
20260508220028 61 331 6.0 17.0 0.00 0.65 0.03 79 1000.8
20260508215513 61 321 6.0 13.0 0.00 0.65 0.03 78 1000.9
20260508215004 61 350 5.0 13.0 0.00 0.65 0.03 78 1000.9
20260508213818 61 348 5.0 13.0 0.00 0.65 0.03 79 1001.0
20260508213259 61 332 5.0 12.0 0.00 0.65 0.03 79 1001.0
20260508212747 61 16 5.0 12.0 0.00 0.65 0.03 79 1000.9
20260508212241 61 10 5.0 12.0 0.00 0.65 0.03 80 1000.9
20260508211747 61 301 5.0 12.0 0.00 0.65 0.03 80 1000.8
20260508211245 61 321 4.0 10.0 0.00 0.65 0.03 80 1000.8
20260508210731 61 5 4.0 10.0 0.00 0.65 0.03 80 1000.7
20260508210219 61 357 4.0 14.0 0.00 0.65 0.03 80 1000.4
20260508205716 61 348 5.0 14.0 0.00 0.65 0.03 80 1000.4
20260508205225 60 0 5.0 14.0 0.00 0.65 0.03 81 1000.5
20260508204715 60 358 5.0 14.0 0.00 0.65 0.03 81 1000.3
20260508203534 60 321 6.0 13.0 0.00 0.65 0.03 80 1000.3
20260508203023 60 2 6.0 13.0 0.00 0.65 0.03 80 1000.3
20260508202510 60 317 6.0 14.0 0.00 0.65 0.03 80 1000.3
20260508202006 60 5 6.0 14.0 0.00 0.65 0.03 81 1000.3
20260508201513 60 26 6.0 14.0 0.00 0.65 0.03 81 1000.3
20260508201018 60 333 6.0 14.0 0.00 0.65 0.03 81 1000.3
20260508200458 60 311 6.0 13.0 0.00 0.65 0.03 81 1000.2
20260508195335 60 4 5.0 13.0 0.00 0.65 0.03 81 1000.1
20260508194819 60 5 6.0 13.0 0.00 0.65 0.03 82 1000.2
20260508194304 60 51 6.0 13.0 0.00 0.65 0.03 82 1000.2
20260508193802 60 326 7.0 13.0 0.00 0.65 0.03 82 1000.1
20260508193254 60 355 6.0 14.0 0.00 0.65 0.03 82 1000.1
20260508192742 60 353 6.0 14.0 0.00 0.65 0.03 82 1000.0
20260508192245 60 5 7.0 14.0 0.00 0.65 0.03 82 1000.2
20260508190509 59 14 4.0 8.0 0.00 0.65 0.03 83 1000.6
20260508190010 59 0 4.0 8.0 0.00 0.65 0.03 83 1000.6
20260508185456 58 4 4.0 9.0 0.00 0.65 0.03 83 1000.8
20260508185003 58 355 4.0 9.0 0.00 0.65 0.03 83 1000.8
20260508184503 58 348 4.0 12.0 0.00 0.65 0.03 84 1000.9
20260508183954 58 5 4.0 12.0 0.00 0.65 0.03 84 1000.9
20260508183441 58 338 4.0 13.0 0.00 0.65 0.03 84 1000.9
20260508182310 57 0 4.0 13.0 0.00 0.65 0.03 85 1000.9
20260508181801 56 341 3.0 13.0 0.00 0.65 0.03 84 1000.9
20260508181243 56 23 4.0 10.0 0.00 0.65 0.03 83 1000.9
20260508180751 56 292 7.0 21.0 0.00 0.65 0.03 83 1000.9
20260508180251 56 2 7.0 21.0 0.03 0.65 0.03 83 1001.0
20260508175739 57 310 8.0 21.0 0.05 0.65 0.03 81 1001.0
20260508175228 58 321 7.0 21.0 0.12 0.65 0.03 80 1001.1
20260508174735 59 260 5.0 12.0 0.88 0.62 0.02 82 1001.2
20260508174224 59 18 5.0 14.0 0.00 0.61 0.00 81 1000.8
20260508173706 59 2 6.0 14.0 0.00 0.61 0.00 81 1000.8
20260508173211 60 10 7.0 14.0 0.00 0.61 0.00 81 1000.8
20260508172708 60 315 6.0 14.0 0.00 0.61 0.00 80 1000.8
20260508172150 60 331 5.0 11.0 0.00 0.61 0.00 80 1000.5
20260508171652 60 310 5.0 12.0 0.00 0.61 0.00 80 1000.5
20260508171200 60 350 6.0 12.0 0.00 0.61 0.00 81 1000.6
20260508170043 59 16 5.0 12.0 0.00 0.61 0.00 82 1000.6
20260508164854 59 358 4.0 10.0 0.00 0.61 0.00 82 1000.7
20260508163749 59 23 4.0 10.0 0.00 0.61 0.00 83 1000.9
20260508162008 59 0 4.0 12.0 0.00 0.61 0.00 83 1001.3
20260508161458 59 343 4.0 12.0 0.00 0.61 0.00 83 1001.3
20260508160347 59 326 3.0 7.0 0.00 0.61 0.00 83 1001.3
20260508155829 59 358 3.0 8.0 0.00 0.61 0.00 83 1001.4
20260508154705 59 35 3.0 11.0 0.00 0.61 0.00 83 1001.4
20260508154200 59 23 5.0 11.0 0.00 0.61 0.00 83 1001.4
20260508153702 59 2 5.0 11.0 0.00 0.61 0.00 83 1001.5
20260508153209 59 9 5.0 11.0 0.00 0.61 0.00 83 1001.6
20260508152653 59 35 4.0 10.0 0.00 0.61 0.00 83 1001.7
20260508152147 59 330 4.0 9.0 0.00 0.61 0.00 84 1001.7
20260508151642 59 14 4.0 9.0 0.00 0.61 0.00 84 1001.8
20260508150516 58 31 3.0 8.0 0.00 0.61 0.00 85 1002.0
20260508150019 58 52 3.0 8.0 0.00 0.61 0.00 85 1002.0
20260508144854 58 66 3.0 7.0 0.00 0.61 0.00 85 1001.9
20260508144335 58 346 3.0 8.0 0.00 0.61 0.00 85 1002.0
20260508143827 58 16 3.0 8.0 0.00 0.61 0.00 85 1002.0
20260508143312 59 5 4.0 8.0 0.00 0.61 0.00 85 1002.1
20260508142759 59 352 3.0 8.0 0.00 0.61 0.00 85 1002.1
20260508142245 59 2 3.0 8.0 0.00 0.61 0.00 85 1002.2
20260508141736 59 26 3.0 8.0 0.00 0.61 0.00 85 1002.3
20260508140611 59 11 2.0 6.0 0.00 0.61 0.00 85 1002.5
20260508140104 59 317 2.0 5.0 0.00 0.61 0.00 85 1002.7
20260508135552 59 5 2.0 5.0 0.00 0.61 0.00 85 1002.7
20260508135056 59 51 3.0 7.0 0.00 0.61 0.00 85 1002.9
20260508134541 59 60 3.0 7.0 0.00 0.61 0.00 85 1002.9
20260508134031 59 18 4.0 9.0 0.00 0.61 0.00 85 1002.9
20260508132306 59 11 4.0 9.0 0.00 0.61 0.00 85 1002.8
20260508131753 59 11 4.0 9.0 0.00 0.61 0.00 85 1002.8
20260508130615 59 77 5.0 10.0 0.00 0.61 0.00 85 1002.7
20260508130056 59 21 6.0 14.0 0.00 0.61 0.00 85 1002.7
20260508124940 59 40 6.0 14.0 0.00 0.61 0.00 86 1002.6
20260508123822 58 42 6.0 12.0 0.00 0.61 0.00 86 1002.6
20260508123329 58 24 5.0 10.0 0.00 0.61 0.00 86 1002.6
20260508122820 58 337 5.0 10.0 0.00 0.61 0.00 86 1002.5
20260508122308 58 42 4.0 8.0 0.00 0.61 0.00 86 1002.5
20260508121803 58 23 5.0 10.0 0.00 0.61 0.00 86 1002.4
20260508121253 58 5 6.0 10.0 0.00 0.61 0.00 86 1002.3
20260508120743 58 19 5.0 10.0 0.00 0.61 0.00 86 1002.3
20260508120247 59 26 4.0 10.0 0.00 0.61 0.00 86 1002.3
20260508115729 59 7 4.0 9.0 0.00 0.61 0.59 87 1002.3
20260508115233 59 7 4.0 9.0 0.00 0.61 0.59 87 1002.2
20260508114740 59 348 5.0 12.0 0.00 0.61 0.59 87 1002.3
20260508114248 59 0 5.0 12.0 0.00 0.61 0.59 87 1002.1
20260508113113 58 353 5.0 13.0 0.04 0.61 0.59 87 1001.9
20260508112610 58 352 6.0 14.0 0.06 0.61 0.59 87 1002.1
20260508112108 58 321 7.0 14.0 0.00 0.60 0.58 87 1002.2
20260508111610 58 331 7.0 17.0 0.00 0.60 0.58 88 1002.3
20260508111106 58 310 7.0 17.0 0.03 0.59 0.57 88 1002.4
20260508110550 58 357 7.0 17.0 0.04 0.59 0.57 87 1002.4
20260508110048 58 330 7.0 17.0 0.07 0.59 0.57 87 1002.6
20260508104938 58 291 10.0 24.0 0.23 0.59 0.56 87 1002.8
20260508104430 59 279 10.0 24.0 0.51 0.55 0.53 87 1002.9
20260508103931 59 289 8.0 13.0 0.96 0.50 0.49 87 1002.7
20260508103420 59 287 5.0 19.0 0.44 0.44 0.42 87 1002.6
20260508102903 59 232 4.0 19.0 0.82 0.39 0.37 87 1002.6
20260508102410 59 301 7.0 19.0 0.10 0.33 0.31 86 1002.7
20260508101905 60 289 6.0 19.0 0.51 0.32 0.29 86 1002.6
20260508101359 60 208 4.0 12.0 0.03 0.22 0.20 86 1002.6
20260508100845 60 30 5.0 12.0 0.06 0.22 0.20 86 1002.2
20260508095706 60 358 5.0 12.0 0.00 0.22 0.19 86 1002.3
20260508095204 60 28 6.0 12.0 0.00 0.21 0.18 86 1002.4
20260508094031 60 31 6.0 12.0 0.06 0.21 0.18 85 1002.5
20260508093516 60 5 5.0 12.0 0.18 0.21 0.18 85 1002.6
20260508093008 60 358 5.0 10.0 0.07 0.19 0.17 84 1002.8
20260508092453 60 14 5.0 10.0 0.25 0.18 0.16 83 1002.8
20260508091946 60 35 5.0 8.0 0.14 0.17 0.14 83 1002.7
20260508082941 62 23 6.0 16.0 0.00 0.02 0.02 77 1002.1
20260508082439 62 2 7.0 16.0 0.00 0.02 0.02 77 1002.1
20260508081934 62 41 8.0 16.0 0.00 0.02 0.02 76 1002.3
20260508081437 62 38 8.0 16.0 0.00 0.02 0.02 76 1002.2
20260508080920 62 9 7.0 15.0 0.00 0.02 0.02 76 1002.4
20260508075752 62 37 9.0 15.0 0.03 0.02 0.02 76 1002.5
20260508075256 62 38 8.0 15.0 0.03 0.02 0.02 76 1002.6
20260508074738 61 42 7.0 15.0 0.03 0.02 0.02 76 1003.0
20260508074247 62 19 7.0 12.0 0.03 0.01 0.01 75 1003.1
20260508073142 62 28 5.0 11.0 0.00 0.00 0.00 74 1003.3
20260508072623 62 40 6.0 13.0 0.00 0.00 0.00 73 1003.4
20260508072122 63 18 6.0 13.0 0.00 0.00 0.00 71 1003.5
20260508071622 63 29 6.0 13.0 0.00 0.00 0.00 71 1003.5
20260508070454 63 355 5.0 11.0 0.00 0.00 0.00 71 1003.8
20260508065953 63 7 6.0 15.0 0.00 0.00 0.00 70 1004.0
20260508065452 64 7 6.0 15.0 0.00 0.00 0.00 70 1004.0
20260508064954 64 16 7.0 16.0 0.00 0.00 0.00 68 1004.0
20260508064458 64 26 7.0 16.0 0.00 0.00 0.00 68 1003.9
20260508064001 65 9 7.0 16.0 0.00 0.00 0.00 67 1003.9
20260508063456 65 357 7.0 16.0 0.00 0.00 0.00 66 1003.9
20260508063000 65 24 7.0 14.0 0.00 0.00 0.00 66 1004.0
20260508062504 65 331 8.0 14.0 0.00 0.00 0.00 66 1004.0
20260508060658 65 21 8.0 18.0 0.00 0.00 0.00 66 1004.0
20260508060140 65 26 8.0 18.0 0.00 0.00 0.00 65 1004.0
20260508055637 65 24 7.0 18.0 0.00 0.00 0.00 64 1004.1
20260508055128 65 14 8.0 19.0 0.00 0.00 0.00 63 1004.2
20260508054611 65 38 7.0 19.0 0.00 0.00 0.00 63 1004.3
20260508054104 65 16 7.0 19.0 0.00 0.00 0.00 64 1004.4
20260508053559 65 14 7.0 19.0 0.00 0.00 0.00 64 1004.5
20260508051210 64 4 7.0 15.0 0.00 0.00 0.00 66 1004.9
20260508050653 64 26 7.0 15.0 0.00 0.00 0.00 66 1004.9
20260508050143 64 51 7.0 15.0 0.00 0.00 0.00 66 1005.0
20260508045625 64 343 6.0 14.0 0.00 0.00 0.00 66 1005.0
20260508045125 64 21 6.0 14.0 0.00 0.00 0.00 66 1005.1
20260508044630 64 357 7.0 15.0 0.00 0.00 0.00 65 1005.1
20260508044117 64 4 7.0 15.0 0.00 0.00 0.00 65 1005.2
20260508043626 64 23 8.0 16.0 0.00 0.00 0.00 65 1005.1